Flag for Germany Weather past 2 weeks in Nuremberg, Bavaria, Germany

36 °F

Light rain. Partly sunny.

Feels Like: 28 °F
Forecast: 34 / 45 °F
Wind: 10 mph from West

Location: Nuernberg

Current Time: Nov 28, 2015 at 4:03:40 PM

Latest Report: Nov 28, 2015 at 3:20 PM

Visibility: N/A

Pressure: 30.01 "Hg

Humidity: 93%

Dew point: 34 °F

Location of NurembergLocation

Historic Weather in Nuremberg — Graph


Nuremberg temperature yesterday

Maximum temperature yesterday: 34 °F (at 12:20 AM)
Minimum temperature yesterday: 28 °F (at 5:50 AM)
Average temperature yesterday: 31 °F

Past Weeks' High & Low Weather Summary

High61 °F (Nov 16, 12:50 PM)100% (Nov 20, 9:50 PM)30.39 "Hg (Nov 20, 9:50 PM)
Low27 °F (Nov 28, 3:20 AM)31% (Nov 16, 1:20 PM)29.42 "Hg (Nov 21, 12:20 PM)
Average42 °F84%29.95 "Hg
* Reported Nov 13 2:20 PM — Nov 28 2:50 PM, Nuremberg, Weather by CustomWeather, © 2015

Note: Actual official high and low records may vary slightly from our data, if they occured in-between our weather recording intervals... More about our weather records


Nuremberg weather history for previous 24 hours

Time TempWeatherWind HumidityBarometerVisibility
2:50 PM
Sat, Nov 28
36 °FLight rain. Partly sunny.7 mph93%29.98 "HgN/A
2:20 PM36 °FPartly sunny.6 mph93%29.98 "HgN/A
1:50 PM36 °FPartly sunny.9 mph93%29.95 "HgN/A
1:20 PM36 °FPartly sunny.8 mph93%29.92 "HgN/A
12:50 PM34 °FPartly sunny.3 mph100%29.92 "HgN/A
12:20 PM34 °FSnow flurries. Partly sunny.5 mph100%29.89 "Hg4 mi
11:50 AM32 °FLight snow. Partly sunny.6 mph100%29.89 "Hg3 mi
11:20 AM32 °FSnow. Mostly cloudy.5 mph100%29.89 "Hg1 mi
10:50 AM32 °FSnow. Mostly cloudy.5 mph100%29.89 "Hg1 mi
10:20 AM32 °FSnow. Mostly cloudy.5 mph100%29.89 "Hg1 mi
9:50 AM32 °FSnow. Mostly cloudy.5 mph93%29.86 "Hg1 mi
9:20 AM32 °FSnow. Partly sunny.6 mph93%29.86 "Hg1 mi
8:50 AM32 °FSnow. Broken clouds.6 mph93%29.86 "Hg1 mi
8:20 AM32 °FLight snow. Partly sunny.6 mph87%29.86 "Hg3 mi
7:20 AM32 °FPassing clouds.6 mph87%29.86 "HgN/A
6:50 AM32 °FPassing clouds.3 mph87%29.86 "HgN/A
6:20 AM30 °FPassing clouds.6 mph93%29.86 "HgN/A
5:50 AM30 °FPassing clouds.3 mph86%29.86 "Hg5 mi
5:20 AM30 °FPassing clouds.5 mph93%29.89 "Hg5 mi
4:50 AM30 °FPassing clouds.6 mph93%29.89 "Hg4 mi
4:20 AM30 °FPassing clouds.2 mph93%29.89 "Hg4 mi
3:50 AM30 °FPassing clouds.2 mph93%29.89 "Hg3 mi
3:20 AM27 °FIce fog.3 mph100%29.89 "Hg3 mi
2:50 AM28 °FIce fog.3 mph100%29.92 "Hg2 mi
2:20 AM30 °FIce fog.3 mph93%29.92 "Hg3 mi
1:50 AM30 °FPassing clouds.2 mph93%29.92 "HgN/A
1:20 AM32 °FOvercast.5 mph93%29.95 "HgN/A
12:50 AM32 °FOvercast.2 mph87%29.95 "HgN/A
11:50 PM
Fri, Nov 27
32 °FOvercast.2 mph93%29.95 "HgN/A
11:20 PM32 °FOvercast.2 mph100%29.98 "HgN/A
10:50 PM32 °FLow clouds.3 mph100%29.98 "HgN/A
10:20 PM32 °FLow clouds.7 mph100%29.98 "Hg4 mi
9:50 PM32 °FLow clouds.3 mph100%29.98 "Hg4 mi
9:20 PM32 °FLow clouds.2 mph100%29.98 "Hg4 mi
8:50 PM30 °FLow clouds.5 mph100%30.01 "Hg4 mi
8:20 PM32 °FLow clouds.5 mph100%30.01 "Hg4 mi
7:50 PM32 °FIce fog.5 mph100%30.01 "Hg3 mi
7:20 PM30 °FIce fog.3 mph100%30.01 "Hg3 mi
6:50 PM30 °FIce fog.3 mph100%30.01 "Hg2 mi
6:20 PM30 °FIce fog.2 mph100%30.01 "Hg2 mi
5:50 PM30 °FIce fog.2 mph100%30.04 "Hg2 mi
5:20 PM30 °FIce fog.1 mph100%30.04 "Hg3 mi
4:50 PM30 °FLow clouds.1 mph100%30.04 "Hg3 mi
4:20 PM30 °FLow clouds.2 mph100%30.04 "Hg3 mi
Weather by CustomWeather, © 2015

See weather overviewHow to use our weather pages